DateTimeUTC,F1_A11,F1_S11,BsB_S11,BsG_S11,BsR_S11,BbsB_S11,BbsG_S11,BbsR_S11,BaB_A11,BaG_A11,BaR_A11,Tu_S11,T_S11,Uu_S11,U_S11,P_S11,T1_A11
2021-04-29T22:00:00Z,00000200,21000000,,,,,,,0000.17,-000.04,0000.01,18.1,25.6,,00.0,0681.6,31.1
2021-04-29T22:01:00Z,00000200,21000000,,,,,,,-000.18,-000.44,0000.06,18.1,25.6,,00.0,0681.6,31.1
2021-04-29T22:02:00Z,00000200,21000000,,,,,,,0000.05,0000.32,0000.01,18.0,25.6,,00.0,0681.6,31.1
2021-04-29T22:03:00Z,00000200,61000000,,,,,,,0000.29,-000.30,-000.05,18.0,25.6,,00.0,0681.6,31.1
2021-04-29T22:04:00Z,00000200,41000000,-000.06,0000.29,0000.03,0000.56,0000.24,-000.43,0000.44,0000.51,0000.11,18.1,25.4,,00.0,0682.5,31.1
2021-04-29T22:05:00Z,00000200,01000000,0000.18,0000.46,0000.21,0000.22,0000.14,0000.22,0000.19,0000.34,0000.12,18.2,25.3,,00.0,0682.6,31.1
2021-04-29T22:06:00Z,00000200,01000000,-000.13,-000.00,-000.10,0000.25,-000.18,-000.38,0000.15,0000.15,0000.35,18.2,25.3,,00.0,0682.6,31.1
2021-04-29T22:07:00Z,00000200,01000000,0000.40,0000.39,0000.20,-000.30,0000.13,-000.12,0000.26,0000.37,0000.39,18.1,25.2,,00.0,0682.6,31.1
2021-04-29T22:08:00Z,00000200,01000000,0000.34,0000.09,0000.14,-000.03,0000.19,-000.17,0000.29,0000.20,-000.20,18.1,25.2,,00.0,0682.6,31.1
2021-04-29T22:09:00Z,00000200,01000000,0000.67,0000.04,0000.14,-000.02,0000.02,-000.25,0000.07,-000.01,0000.42,18.1,25.2,,00.0,0682.6,31.1
2021-04-29T22:10:00Z,00000200,01000000,0000.31,0000.07,-000.05,0000.30,-000.13,-000.17,0000.41,0000.47,0000.18,18.1,25.2,,00.0,0682.6,31.1
2021-04-29T22:11:00Z,00000200,01000000,0000.45,0000.09,0000.16,0000.30,-000.05,-000.15,-000.09,0000.05,-000.19,18.1,25.2,,00.0,0682.6,31.1
2021-04-29T22:12:00Z,00000200,01000000,-000.05,0000.05,0000.17,0000.15,0000.35,0000.02,0000.35,0000.37,0000.20,18.1,25.1,,00.0,0682.6,31.1
2021-04-29T22:13:00Z,00000200,01000000,0000.42,0000.18,0000.24,0000.02,0000.03,-000.36,0000.56,0000.36,0000.60,18.1,25.1,,00.0,0682.6,31.1
2021-04-29T22:14:00Z,00000200,01000000,0000.28,0000.29,-000.19,0000.08,0000.17,-000.17,0000.32,0000.05,-000.20,18.1,25.1,,00.0,0682.6,31.1
2021-04-29T22:15:00Z,00000200,01000000,0000.57,0000.25,-000.07,-000.05,0000.22,-000.21,0000.30,0000.03,0000.38,18.1,25.1,,00.0,0682.6,31.1
2021-04-29T22:16:00Z,00000200,01000000,0000.32,-000.03,-000.07,-000.00,-000.09,-000.05,0000.05,0000.23,0000.00,18.1,25.0,,00.0,0682.6,31.1
2021-04-29T22:17:00Z,00000200,01000000,0000.59,0000.13,0000.00,0000.38,-000.01,-000.05,0000.03,0000.14,0000.04,18.0,25.1,,00.0,0682.6,31.1
2021-04-29T22:18:00Z,00000200,01000000,0000.82,0000.42,0000.29,-000.20,-000.02,-000.20,0000.29,0000.21,0000.27,18.0,25.1,,00.0,0682.6,31.1
2021-04-29T22:19:00Z,00000200,01000000,0000.40,0000.31,0000.07,0000.25,0000.05,-000.18,0000.17,0000.08,0000.09,18.0,25.0,,00.0,0682.6,31.1
2021-04-29T22:20:00Z,00000200,01000000,-000.15,0000.07,0000.11,-000.02,0000.22,0000.22,0000.14,0000.41,-000.11,18.0,25.0,,00.0,0682.6,31.1
2021-04-29T22:21:00Z,00000200,01000000,0000.53,0000.35,-000.05,0000.09,0000.18,-000.12,-000.07,0000.29,0000.19,18.0,25.0,,00.0,0682.6,31.1
2021-04-29T22:22:00Z,00000200,01000000,0000.78,0000.04,-000.08,0000.10,0000.15,-000.33,0000.35,-000.27,-000.01,18.0,25.0,,00.0,0682.6,31.1
2021-04-29T22:23:00Z,00000200,01000000,0000.71,0000.23,-000.00,-000.37,-000.05,-000.13,0000.15,0000.63,0000.13,17.9,25.0,,00.0,0682.7,31.1
2021-04-29T22:24:00Z,00000200,01000000,0000.26,0000.16,0000.10,0000.36,-000.05,-000.26,0000.33,-000.39,0000.27,17.9,24.9,,00.0,0682.7,31.1
2021-04-29T22:25:00Z,00000200,01000000,0000.50,0000.22,0000.03,0000.57,0000.07,-000.19,-000.16,0000.35,0000.09,17.9,24.9,,00.0,0682.7,31.1
2021-04-29T22:26:00Z,00000200,01000000,0001.10,0000.39,-000.00,-000.30,0000.03,-000.04,0000.84,0000.35,0000.25,17.9,24.9,,00.0,0682.7,31.1
2021-04-29T22:27:00Z,00000200,01000000,0000.73,0000.10,0000.19,0000.22,0000.11,-000.01,-000.00,0000.19,0000.02,17.9,24.9,,00.0,0682.7,31.1
2021-04-29T22:28:00Z,00000200,01000000,0000.47,-000.01,0000.13,0000.32,-000.05,-000.12,0000.22,0000.04,0000.13,17.9,24.9,,00.0,0682.7,31.1
2021-04-29T22:29:00Z,00000200,01000000,0000.68,0000.05,0000.09,0000.14,0000.02,0000.04,0000.03,-000.03,-000.04,17.9,24.9,,00.0,0682.8,31.1
2021-04-29T22:30:00Z,00000200,01000000,0000.56,0000.36,0000.41,0000.42,0000.27,0000.02,0000.07,0000.18,0000.08,17.9,24.9,,00.0,0682.8,31.1
2021-04-29T22:31:00Z,00000200,01000000,-000.18,0000.32,0000.09,0000.70,0000.09,-000.07,0000.22,-000.06,-000.13,17.8,24.8,,00.0,0682.8,31.1
2021-04-29T22:32:00Z,00000200,01000000,0000.47,0000.50,-000.03,0000.08,0000.16,-000.37,0000.01,0000.07,0000.61,17.8,24.8,,00.0,0682.9,31.1
2021-04-29T22:33:00Z,00000200,01000000,0000.79,0000.04,-000.14,0000.03,0000.01,-000.29,-000.05,0000.50,-000.21,17.8,24.8,,00.0,0682.9,31.0
2021-04-29T22:34:00Z,00000200,01000000,0000.53,0000.05,-000.21,0000.23,0000.02,0000.01,0000.10,-000.11,0000.34,17.8,24.8,,00.0,0682.9,31.1
2021-04-29T22:35:00Z,00000200,01000000,0000.25,0000.47,0000.00,0000.05,0000.01,-000.03,-000.02,-000.30,-000.13,17.8,24.8,,00.0,0682.9,31.1
2021-04-29T22:36:00Z,00000200,01000000,0000.67,-000.13,0000.23,-000.09,-000.26,0000.13,-000.28,-000.59,-000.77,17.8,24.8,,00.0,0682.9,31.0
2021-04-29T22:37:00Z,00000200,01000000,0000.49,0000.51,0000.31,0000.35,0000.26,-000.10,0000.27,0000.11,0000.72,17.8,24.8,,00.0,0682.9,31.0
2021-04-29T22:38:00Z,00000200,01000000,0001.03,0000.52,0000.15,0000.21,0000.19,0000.13,-000.15,0000.49,-000.17,17.8,24.8,,00.0,0682.9,31.1
2021-04-29T22:39:00Z,00000200,01000000,0000.99,0000.35,-000.15,0000.16,0000.17,-000.29,0000.67,0000.32,0000.45,17.8,24.7,,00.0,0682.9,31.1
2021-04-29T22:40:00Z,00000200,01000000,0000.35,0000.28,0000.19,0000.38,0000.03,0000.14,0000.37,0000.64,0000.40,17.8,24.8,,00.0,0682.9,31.1
2021-04-29T22:41:00Z,00000200,01000000,0000.49,0000.19,0000.17,0000.16,0000.21,0000.02,0000.22,-000.09,0000.09,17.8,24.8,,00.0,0682.9,31.0
2021-04-29T22:42:00Z,00000200,01000000,-000.01,0000.06,-000.13,0000.51,-000.16,-000.23,0000.69,0000.70,0000.41,17.8,24.7,,00.0,0682.9,31.0
2021-04-29T22:43:00Z,00000200,01000000,0000.78,0000.51,0000.23,0000.64,0000.33,0000.21,0002.69,0002.44,0001.78,17.8,24.7,,00.0,0682.9,31.1
2021-04-29T22:44:00Z,00000200,01000000,0001.29,0000.83,0000.03,0000.77,0000.32,0000.07,0004.70,0004.39,0002.98,17.7,24.7,,00.0,0682.9,31.1
2021-04-29T22:45:00Z,00000200,01000000,0001.22,0000.31,0000.09,0000.13,0000.21,-000.09,0005.55,0004.38,0003.43,17.7,24.7,,00.0,0682.9,31.1
2021-04-29T22:46:00Z,00000200,01000000,0001.64,0000.45,0000.62,-000.06,0000.30,-000.08,0012.59,0011.53,0008.59,17.7,24.7,,00.0,0682.9,31.1
2021-04-29T22:47:00Z,00000200,01000000,0002.05,0000.87,0000.46,0000.58,0000.07,-000.04,0028.97,0025.77,0018.91,17.7,24.7,,00.0,0683.0,31.0
2021-04-29T22:48:00Z,00000200,01000000,0001.93,0000.35,0000.31,0000.79,0000.33,0000.16,0025.14,0022.29,0016.62,17.6,24.7,,00.0,0683.0,31.0
2021-04-29T22:49:00Z,00000200,01000000,0000.68,0000.51,0000.14,0000.50,-000.10,-000.02,0016.25,0014.31,0011.34,17.6,24.7,,00.0,0682.9,31.0
2021-04-29T22:50:00Z,00000200,01000000,0000.61,0000.32,0000.19,0000.47,0000.05,0000.10,0011.86,0010.94,0007.72,17.6,24.6,,00.0,0682.9,31.0
2021-04-29T22:51:00Z,00000200,01000000,0001.30,0000.64,0000.46,0000.59,0000.10,0000.15,0026.72,0023.47,0017.48,17.6,24.6,,00.0,0682.9,31.0
2021-04-29T22:52:00Z,00000200,01000000,0000.82,0000.73,0000.04,0000.10,-000.04,-000.15,0016.32,0015.06,0010.74,17.6,24.6,,00.0,0682.9,31.0
2021-04-29T22:53:00Z,00000200,01000000,0001.28,0000.71,0000.16,0000.40,0000.44,-000.30,0019.57,0017.46,0013.19,17.6,24.6,,00.0,0682.9,31.1
2021-04-29T22:54:00Z,00000200,01000000,0000.74,0000.84,0000.18,0000.57,0000.22,-000.30,0020.19,0017.83,0013.24,17.7,24.6,,00.0,0682.9,31.1
2021-04-29T22:55:00Z,00000200,01000000,0001.57,0000.54,0000.39,0000.07,0000.24,0000.00,0017.28,0014.88,0011.31,17.7,24.7,,00.0,0682.9,31.1
2021-04-29T22:56:00Z,00000200,01000000,0001.32,0000.38,0000.27,0000.50,0000.31,-000.05,0017.85,0015.97,0011.90,17.8,24.7,,00.0,0682.9,31.1
2021-04-29T22:57:00Z,00000200,41000000,,,,,,,0008.71,0008.16,0006.42,17.8,24.7,,00.0,0682.8,31.1
2021-04-29T22:58:00Z,00000200,61000000,,,,,,,-000.14,-000.21,-000.46,17.5,24.9,,00.0,0681.9,31.1
2021-04-29T22:59:00Z,00000200,21000000,,,,,,,-000.15,0000.02,-000.09,17.5,25.0,,00.0,0681.9,31.1
